Flag for U.S.A. Weather past 2 weeks in Dayton, Ohio, U.S.A.

Now
68 °F

Light rain. Sunny.


Feels Like: 68 °F
Forecast: 59 / 80 °F
Wind: 5 mph from Southwest

Location: Dayton / Wright-Patterson Air Force Base

Current Time: Jul 31, 2014 at 11:15:48 AM

Latest Report: Jul 31, 2014 at 9:58 AM


Visibility: 10 mi

Pressure: 30.10 "Hg

Humidity: 85%

Dew point: 64 °F

Location of DaytonLocation

Historic Weather in Dayton — Graph

°F

Dayton temperature yesterday

Maximum temperature yesterday: 76 °F (at 5:58 PM)
Minimum temperature yesterday: 56 °F (at 6:58 AM)
Average temperature yesterday: 67 °F

Past Weeks' High & Low Weather Summary

 TemperatureHumidityPressure
High86 °F (Jul 21, 5:58 PM)100% (Jul 19, 4:58 AM)30.21 "Hg (Jul 19, 4:58 AM)
Low52 °F (Jul 17, 4:58 AM)41% (Jul 17, 3:58 PM)29.69 "Hg (Jul 27, 5:58 PM)
Average68 °F78%30.03 "Hg
* Reported Jul 16 9:58 AM — Jul 31 9:58 AM, Dayton, Weather by CustomWeather, © 2014

Note: Actual official high and low records may vary slightly from our data, if they occured in-between our weather recording intervals... More about our weather records

Advertising

Dayton weather history for previous 24 hours

 ConditionsComfort  
Time TempWeatherWind HumidityBarometerVisibility
9:58 AM
Jul 31
68 °FLight rain. Sunny.5 mph85%30.10 "Hg10 mi
8:58 AM66 °FSunny.6 mph90%30.09 "Hg10 mi
7:58 AM62 °FFog.2 mph97%30.08 "Hg6 mi
6:58 AM58 °FFog.3 mph100%30.08 "Hg5 mi
5:58 AM59 °FFog.2 mph100%30.07 "Hg6 mi
4:58 AM60 °FClear.3 mph97%30.06 "Hg10 mi
3:58 AM60 °FClear.3 mph99%30.05 "Hg10 mi
2:58 AM60 °FClear.5 mph96%30.06 "Hg10 mi
1:58 AM63 °FPassing clouds.5 mph92%30.06 "Hg10 mi
12:58 AM65 °FPartly cloudy.5 mph88%30.06 "Hg10 mi
11:58 PM
Jul 30
65 °FPassing clouds.3 mph86%30.06 "Hg10 mi
10:58 PM65 °FPassing clouds.3 mph85%30.05 "Hg10 mi
9:58 PM67 °FPassing clouds.6 mph81%30.05 "Hg10 mi
8:58 PM66 °FSunny.8 mph82%30.03 "Hg10 mi
7:58 PM72 °FPassing clouds.8 mph69%30.03 "Hg10 mi
6:58 PM75 °FScattered clouds.8 mph65%30.03 "Hg10 mi
5:58 PM76 °FScattered showers. Scattered clouds.6 mph55%30.02 "Hg10 mi
4:58 PM76 °FThundershowers. Scattered clouds.7 mph56%30.02 "Hg10 mi
3:58 PM73 °FThundershowers. Scattered clouds.7 mph72%30.02 "Hg10 mi
2:58 PM69 °FThundershowers. Scattered clouds.13 mph76%30.03 "Hg10 mi
1:58 PM71 °FThundershowers. Partly sunny.9 mph76%30.03 "Hg10 mi
1:51 PM72 °FThundershowers. Partly sunny.8 mph73%30.03 "Hg10 mi
12:58 PM75 °FThunderstorms. Passing clouds.13 mph65%30.03 "Hg10 mi
11:58 AM73 °FSunny.9 mph67%30.06 "Hg10 mi
Weather by CustomWeather, © 2014

See weather overviewHow to use our weather pages